Location: Unspecified
(52.4292°N, 19.3359°E)
Time: 01:12:12
(UTC+02:00)

A-11 Canister half - Pass Details

Date: 26 May 2024
Orbit: 1514 x 1685 km, 47.2° (Epoch: 20 June)

Event Time Altitude Azimuth Distance (km) Brightness Sun altitude
Rises 23:13:57 0° 170° (S) 4,815 - -13.9°
Reaches altitude 10° 23:20:18 10° 140° (SE) 3,789 - -14.2°
Exits shadow 23:21:58 11° 130° (SE) 3,687 10.5 -14.3°
Maximum altitude 23:22:50 11° 124° (SE) 3,669 10.5 -14.4°
Drops below altitude 10° 23:25:22 10° 108° (ESE) 3,758 10.7 -14.5°
Sets 23:31:31 0° 78° (ENE) 4,708 11.5 -14.8°
